Regional Weather Roundup
Issued by NWS

Home | Current Version | Previous Version | Graphics & Text | Print | Product List | Glossary On
Versions: 1 2 3 4 5 6 7 8 9 10 11 12 13 14 15 16 17 18 19 20 21 22 23 24 25 26 27 28 29 30 31 32 33 34 35 36 37 38 39 40 41 42 43 44 45 46 47 48 49 50
000
ASUS43 KIND 010009
RWRIN

WEATHER ROUNDUP FOR INDIANA
NATIONAL WEATHER SERVICE INDIANAPOLIS IN
800 PM EDT TUE MAY 31 2016

NOTE: "FAIR" INDICATES FEW OR NO CLOUDS BELOW 12,000 FEET WITH NO
SIGNIFICANT WEATHER AND/OR OBSTRUCTIONS TO VISIBILITY.

* - STATION DOES NOT REPORT WEATHER SUCH AS PRECIPITATION OR FOG.

+ - STATION NOT QUALITY CONTROLLED BY THE NATIONAL WEATHER SERVICE.
    USE DATA WITH CAUTION...ESPECIALLY DEWPOINT AND RELATIVE
    HUMIDITY OBSERVATIONS.

INZ001>003-010>013-019-020-010100-
NORTHWEST INDIANA

CITY           SKY/WX    TMP DP  RH WIND       PRES   REMARKS
GARY /AIRPORT/ PTSUNNY   64  64 100 N8        29.98F
KNOX *+        CLOUDY    66  61  82 NE13      29.97F
LA PORTE +     LGT RAIN  70  67  93 NE6       30.01F
6HR MIN TEMP:  69; 6HR MAX TEMP:  88; 6HR PCP:  0.11;

MICHIGAN CITY+ CLOUDY    63  63 100 N6        30.01F
MONTICELLO +   CLOUDY    73  54  52 E12G18    29.95R
6HR MIN TEMP:  71; 6HR MAX TEMP:  89; 6HR PCP:  0.02;

RENSSELAER +   CLOUDY    73  61  64 N8        29.96R

$$

LMZ046-743>745-010100-
SOUTHERN LAKE MICHIGAN

STATION/POSITION TIME  TEMP    WIND        PRES    WAVE
                       AIR SEA DIR/SP/G            HT
                 (UTC) (F)     (DEG/KT/KT) (MB)    (FT)
BURNS HARBOR     2300   62     250/  6/ 18 1016.9R
MICHIGAN CITY    2300   61     190/  9/ 10   N/A
5NW MICH CITY    0000   63 62   30/  8/ 10   N/A     2

$$

INZ004-005-014>016-021>024-010100-
NORTH CENTRAL INDIANA

CITY           SKY/WX    TMP DP  RH WIND       PRES   REMARKS
GOSHEN         CLOUDY    75  57  53 NW9       29.98R
6HR MIN TEMP:  74; 6HR MAX TEMP:  87;

LOGANSPORT +   LGT RAIN  68  61  77 N5        29.99R
PERU/GRISSOM   LGT RAIN  73  61  64 W9        29.97R
6HR MIN TEMP:  73; 6HR MAX TEMP:  88; 6HR PCP: TRACE;

ROCHESTER +    RAIN      70  64  83 N6        30.00R
SOUTH BEND     LGT RAIN  65  63  93 NW16      30.01F
6HR MIN TEMP:  65; 6HR MAX TEMP:  86; 6HR PCP:  0.08;

WARSAW +       CLOUDY    73  57  56 NW7       29.99R

$$

INZ006>009-017-018-025>027-010100-
NORTHEAST INDIANA

CITY           SKY/WX    TMP DP  RH WIND       PRES   REMARKS
ANGOLA *+        N/A     82  52  34 E9        29.99S
AUBURN +       SUNNY     81  45  28 E12       29.99S
FORT WAYNE     MOSUNNY   81  50  33 E16G24    29.96S
6HR MIN TEMP:  81; 6HR MAX TEMP:  86;

HUNTINGTON +   CLOUDY   N/A N/A N/A E7        29.95R

$$

INZ028-029-035-036-043>045-051>053-010100-
WEST CENTRAL INDIANA

CITY           SKY/WX    TMP DP  RH WIND       PRES   REMARKS
CRAWFORDSVL +  SUNNY     81  53  36 S7        29.93S
6HR MIN TEMP:  81; 6HR MAX TEMP:  88;

GREENCASTLE +  SUNNY     81  63  54 S3        29.94R
LAFAYETTE      MOSUNNY   76  57  51 E14       29.93R
6HR MIN TEMP:  76; 6HR MAX TEMP:  88;

TERRE HAUTE    SUNNY     83  57  41 S6        29.91S
6HR MIN TEMP:  83; 6HR MAX TEMP:  88;


$$

INZ030>032-037>040-046>048-054>057-064-065-010100-
CENTRAL INDIANA

CITY           SKY/WX    TMP DP  RH WIND       PRES   REMARKS
CP ATTERBURY + SUNNY     81  64  57 CALM      29.93S
COLUMBUS       SUNNY     81  57  44 CALM      29.93S
FRANKFORT +      N/A     76  46  33 NE10G16   29.96S
6HR MIN TEMP:  75; 6HR MAX TEMP:  90;

GREENWOOD *+   SUNNY     82  57  42 CALM      29.94F
INDIANAPOLIS   MOSUNNY   80  59  48 SE7       29.93S
6HR MIN TEMP:  80; 6HR MAX TEMP:  87;

-EAGLE CREEK   MOSUNNY   84  55  36 S5        29.93S
6HR MIN TEMP:  84; 6HR MAX TEMP:  88;

KOKOMO *+      CLOUDY    75  59  57 NW15      29.96R
6HR MIN TEMP:  75; 6HR MAX TEMP:  88;

MARION +       CLOUDY    79  54  41 S10       29.97R HAZE
SHELBYVILLE    SUNNY     84  63  49 CALM      29.93S
6HR MIN TEMP:  74; 6HR MAX TEMP:  91; 6HR PCP:  0.08;

ZIONSVILLE +   CLOUDY    74  68  80 CALM      29.95S
6HR MIN TEMP:  72; 6HR MAX TEMP:  87; 6HR PCP:  0.40;


$$

INZ033-034-041-042-049-050-058-059-010100-
EAST CENTRAL INDIANA

CITY           SKY/WX    TMP DP  RH WIND       PRES   REMARKS
MUNCIE         CLOUDY    79  61  53 W5        29.95S
6HR MIN TEMP:  79; 6HR MAX TEMP:  91; 6HR PCP:  0.02;


$$

INZ060-061-067>069-081>083-085>088-010100-
SOUTHWEST INDIANA

CITY           SKY/WX    TMP DP  RH WIND       PRES   REMARKS
EVANSVILLE     MOSUNNY   83  60  45 E3        29.90R
6HR MIN TEMP:  83; 6HR MAX TEMP:  87;

HUNTINGBURG *+ MOSUNNY   79  64  61 SE6       29.91S
6HR MIN TEMP:  79; 6HR MAX TEMP:  88;

WASHINGTON +   SUNNY     83  61  47 SE5       29.90S
6HR MIN TEMP:  83; 6HR MAX TEMP:  88;


$$

INZ062-063-066-070>080-084-089>092-010100-
SOUTH CENTRAL AND SOUTHEAST INDIANA

CITY           SKY/WX    TMP DP  RH WIND       PRES   REMARKS
BEDFORD +      SUNNY     81  66  61 SE3       29.92S
BLOOMINGTON    SUNNY     83  56  39 SE6       29.93S
6HR MIN TEMP:  83; 6HR MAX TEMP:  86;

MADISON *+     CLEAR     81  55  41 SE3       29.97R
NORTH VERNON + SUNNY     84  64  51 CALM      29.95R
SEYMOUR +      SUNNY     86  59  39 CALM      29.93S

$$





USA.gov is the U.S. government's official web portal to all federal, state and local government web resources and services.